Station BRND1 - 8555889 - Brandywine Shoal Light, DE Image indicating link to RSS feed of recent meteorological observations for station BRND1


Conditions at BRND1 as of
(7:00 pm EDT)
2300 GMT on 06/13/2024:
     

Click on the graph icon in the table below to see a time series plot of the last five days of that observation.

5-day plot - Wind Direction Wind Direction (WDIR): S ( 180 deg true )
5-day plot - Wind Speed Wind Speed (WSPD): 22.9 kts
5-day plot - Wind Gust Wind Gust (GST): 26.0 kts
5-day plot - Atmospheric Pressure Atmospheric Pressure (PRES):29.98 in
5-day plot - Pressure Tendency Pressure Tendency (PTDY):-0.01 in ( Falling )
5-day plot - Wind Speed at 10 Meters Wind Speed at 10 meters (WSPD10M): 21.4 kts
5-day plot - Wind Speed at 20 Meters Wind Speed at 20 meters (WSPD20M): 23.3 kts
5-day plot -  Wind Speed, Wind Gust and Atmospheric Pressure Combined plot of Wind Speed, Gust, and Air Pressure
NOS Water Level Observation Network Water Level
Previous observations
TIME
(EDT)
5-day plot - Wind Direction
WDIR
 
5-day plot - Wind Speed
WSPD
kts
5-day plot - Wind Gust
GST
kts
5-day plot - Wave Height
WVHT
ft
5-day plot - Dominant Wave Period
DPD
sec
5-day plot - Average Wave Period
APD
sec
5-day plot - Mean Wave Direction
MWD
 
5-day plot - Atmospheric Pressure
PRES
in
5-day plot - Pressure Tendency
PTDY
in
5-day plot - Air Temperature
ATMP
°F
5-day plot - Water Temperature
WTMP
°F
5-day plot - Dew Point
DEWP
°F
5-day plot - Salinity
SAL
psu
5-day plot - Visibility
VIS
nmi
5-day plot - Tide (above MLLW)
TIDE
ft
2024-06-13 06:54 pm S 24.1 26.0----29.98-------
2024-06-13 06:48 pm S 22.9 26.0----29.98-------
2024-06-13 06:42 pm S 22.9 25.1----29.98-------
2024-06-13 06:36 pm S 22.9 25.1----29.98-------
2024-06-13 06:30 pm S 22.9 25.1----29.98- 70.5-----
2024-06-13 06:24 pm S 24.1 26.0----29.98- 70.9-----
2024-06-13 06:18 pm S 24.1 26.0----29.98- 70.9-----
2024-06-13 06:12 pm S 22.9 25.1----29.98- 70.9-----
2024-06-13 06:06 pm S 22.9 25.1----29.98- 70.9-----
2024-06-13 06:00 pm S 22.9 26.0----29.98-0.03------
2024-06-13 05:54 pm S 22.9 27.0----29.98-------
2024-06-13 05:48 pm S 25.1 26.0----29.98- 71.1-----
2024-06-13 05:42 pm S 24.1 26.0----29.98- 71.2-----
2024-06-13 05:36 pm S 22.9 25.1----29.98- 70.9-----
2024-06-13 05:30 pm S 22.0 25.1----29.98- 70.9-----
2024-06-13 05:24 pm S 22.0 24.1----29.98- 70.9-----
2024-06-13 05:18 pm S 22.0 25.1----29.98-------
2024-06-13 05:12 pm S 22.9 25.1----29.98-------
2024-06-13 05:06 pm S 22.9 25.1----29.98-------
2024-06-13 05:00 pm S 22.0 25.1----29.98-0.04 71.2-----
2024-06-13 04:54 pm S 22.0 24.1----29.99- 71.2-----
2024-06-13 04:48 pm S 22.0 24.1----29.99- 71.2-----
2024-06-13 04:42 pm S 22.0 25.1----29.99- 71.1-----
2024-06-13 04:36 pm S 22.9 25.1----29.99- 70.9-----
2024-06-13 04:30 pm S 22.9 26.0----29.99- 71.2-----
2024-06-13 04:24 pm S 22.9 25.1----29.99- 71.2-----
2024-06-13 04:18 pm S 22.0 24.1----29.99-------
2024-06-13 04:12 pm S 22.0 22.9----30.00-------
2024-06-13 04:06 pm S 22.0 22.9----30.00-------
2024-06-13 04:00 pm S 21.0 22.9----30.00-0.04 70.5-----
2024-06-13 03:54 pm S 21.0 22.9----30.00- 70.5-----
2024-06-13 03:48 pm S 21.0 24.1----30.00- 70.7-----
2024-06-13 03:42 pm S 22.0 24.1----30.01- 70.9-----
2024-06-13 03:36 pm S 21.0 22.9----30.01- 70.7-----
2024-06-13 03:30 pm S 21.0 24.1----30.01-------
2024-06-13 03:24 pm S 21.0 22.9----30.01-------
2024-06-13 03:18 pm S 22.0 22.9----30.01- 70.7-----
2024-06-13 03:12 pm S 21.0 22.9----30.01- 70.5-----
2024-06-13 03:06 pm S 21.0 22.9----30.01- 70.5-----
2024-06-13 03:00 pm S 21.0 22.9----30.01- 70.3-----
2024-06-13 02:54 pm S 21.0 22.9----30.01- 70.5-----
2024-06-13 02:48 pm S 20.0 22.0----30.02-------
2024-06-13 02:42 pm S 19.0 20.0----30.02-------
2024-06-13 02:36 pm S 19.0 20.0----30.02-------
2024-06-13 02:30 pm S 19.0 21.0----30.02-------
2024-06-13 02:24 pm S 19.0 21.0----30.02-------
2024-06-13 02:18 pm S 18.1 20.0----30.02- 70.2-----
2024-06-13 02:12 pm S 19.0 20.0----30.03- 70.2-----
2024-06-13 02:06 pm S 18.1 20.0----30.03- 70.2-----
2024-06-13 02:00 pm S 19.0 20.0----30.03-0.03------
2024-06-13 01:54 pm S 17.1 18.1----30.03-------
2024-06-13 01:48 pm S 17.1 18.1----30.03-------
2024-06-13 01:42 pm S 17.1 18.1----30.03-------
2024-06-13 01:36 pm S 15.9 19.0----30.03-------
2024-06-13 01:30 pm--------- 69.8-----
2024-06-13 01:24 pm--------- 69.6-----
2024-06-13 01:18 pm S 17.1 18.1----30.03- 69.6-----
2024-06-13 01:12 pm S 17.1 19.0----30.03- 69.6-----
2024-06-13 01:06 pm S 15.9 18.1----30.03- 69.8-----
2024-06-13 01:00 pm-------30.04-0.02 69.8-----
2024-06-13 12:54 pm-------30.04- 69.8-----
2024-06-13 12:48 pmSSE 15.0 17.1----30.04- 69.8-----
2024-06-13 12:42 pm S 15.0 17.1----30.04- 69.8-----
2024-06-13 12:36 pm S 15.0 15.9----30.04- 69.8-----
2024-06-13 12:30 pm-------30.04- 69.8-----
2024-06-13 12:24 pm-------30.04- 70.0-----
2024-06-13 12:18 pmSSE 15.0 15.9----30.04-------
2024-06-13 12:12 pmSSE 13.0 13.0----30.04-------
2024-06-13 12:06 pmSSE 13.0 14.0----30.04-------
2024-06-13 12:00 pm S 12.0 13.0------ 70.3-----
2024-06-13 11:54 am S 13.0 14.0------ 70.2-----
2024-06-13 11:48 amSSE 12.0 13.0----30.04-------
2024-06-13 11:42 amSSE 11.1 13.0----30.04-------
2024-06-13 11:36 am S 12.0 13.0----30.05-------
2024-06-13 11:30 am S 12.0 13.0----30.05-------
2024-06-13 11:24 am S 11.1 13.0----30.05-------
2024-06-13 11:18 am S 11.1 13.0----30.05- 70.5-----
2024-06-13 11:12 am S 12.0 13.0----30.05- 70.7-----
2024-06-13 11:06 am S 9.9 11.1----30.06- 70.9-----
2024-06-13 11:00 am S 11.1 12.0----30.06+0.00 70.9-----
2024-06-13 10:54 am S 8.9 11.1----30.06- 70.7-----
2024-06-13 10:48 am S 8.9 11.1----30.06- 70.9-----
2024-06-13 10:42 am S 8.9 9.9----30.06- 70.7-----
2024-06-13 10:36 am S 8.0 8.0----30.06- 70.9-----
2024-06-13 10:30 am S 8.0 8.9----30.05-------
2024-06-13 10:24 am S 8.0 9.9----30.06-------
2024-06-13 10:18 am S 8.0 8.0----30.06- 70.9-----
2024-06-13 10:12 am S 7.0 7.0----30.06- 70.7-----
2024-06-13 10:06 am S 7.0 8.0----30.06- 71.4-----
2024-06-13 10:00 am S 8.0 8.0----30.06+0.00 71.4-----
2024-06-13 09:54 am S 7.0 8.0----30.06- 71.1-----
2024-06-13 09:48 am S 7.0 8.0----30.06- 70.9-----
2024-06-13 09:42 am S 6.0 7.0----30.06- 71.1-----
2024-06-13 09:36 amSSW 7.0 7.0----30.06- 71.1-----
2024-06-13 09:30 amSSW 6.0 6.0----30.06- 70.7-----
2024-06-13 09:24 amSSW 5.1 6.0----30.06- 70.7-----
2024-06-13 09:18 amSSW 6.0 7.0----30.06- 70.7-----
2024-06-13 09:12 amSSW 6.0 7.0----30.06- 70.5-----
2024-06-13 09:06 amSSW 7.0 8.0----30.06- 70.5-----
2024-06-13 09:00 amSSW 7.0 7.0----30.06+0.02 70.5-----
2024-06-13 08:54 amSSW 7.0 8.0----30.06- 70.3-----
2024-06-13 08:48 amSSW 8.0 8.9----30.06- 70.3-----
2024-06-13 08:42 amSSW 7.0 8.9----30.06- 70.2-----
2024-06-13 08:36 amSSW 8.9 9.9----30.06- 70.2-----
2024-06-13 08:30 amSSW 8.9 9.9----30.06- 70.2-----
2024-06-13 08:24 amSSW 8.9 11.1----30.06- 70.0-----
2024-06-13 08:18 am SW 9.9 12.0----30.06- 70.0-----
2024-06-13 08:12 am SW 9.9 12.0----30.06- 69.8-----
2024-06-13 08:06 am SW 11.1 12.0----30.06- 69.6-----
2024-06-13 08:00 am SW 9.9 12.0----30.06+0.04 69.6-----
2024-06-13 07:54 am SW 9.9 11.1----30.06- 69.4-----
2024-06-13 07:48 am SW 9.9 12.0----30.06-------
2024-06-13 07:42 am SW 12.0 13.0----30.06-------
2024-06-13 07:36 am SW 11.1 13.0----30.06-------
2024-06-13 07:30 am SW 12.0 13.0----30.06- 69.1-----
2024-06-13 07:24 am SW 12.0 14.0----30.06- 68.9-----
2024-06-13 07:18 am SW 12.0 14.0----30.06- 68.9-----
2024-06-13 07:12 am SW 12.0 14.0----30.06- 68.9-----
2024-06-13 07:06 am SW 12.0 14.0----30.06- 68.7-----
2024-06-13 07:00 am SW 9.9 11.1----30.06+0.04 68.7-----
2024-06-13 06:54 am SW 9.9 12.0----30.06- 68.7-----
2024-06-13 06:48 am SW 8.9 9.9----30.05- 68.5-----
2024-06-13 06:42 am SW 9.9 9.9----30.05- 68.7-----
2024-06-13 06:36 am SW 8.9 11.1----30.05- 68.5-----
2024-06-13 06:30 am SW 11.1 12.0----30.04- 68.5-----
2024-06-13 06:24 am SW 11.1 13.0----30.04- 68.7-----
2024-06-13 06:18 am SW 9.9 12.0----30.04- 68.7-----
2024-06-13 06:12 am SW 9.9 12.0----30.04- 68.5-----
2024-06-13 06:06 am SW 9.9 12.0----30.04- 68.5-----
2024-06-13 06:00 am SW 11.1 12.0----30.04+0.02 68.5-----
2024-06-13 05:54 am SW 11.1 12.0----30.04- 68.5-----
2024-06-13 05:48 am SW 9.9 11.1----30.04- 68.5-----
2024-06-13 05:42 am SW 8.9 11.1----30.03- 68.5-----
2024-06-13 05:36 am SW 9.9 12.0----30.03- 68.7-----
2024-06-13 05:30 am SW 11.1 12.0----30.03- 68.7-----
2024-06-13 05:24 am SW 11.1 13.0----30.03- 68.5-----
2024-06-13 05:18 am SW 12.0 13.0----30.03- 68.5-----
2024-06-13 05:12 am SW 11.1 12.0----30.03- 68.4-----
2024-06-13 05:06 am SW 11.1 13.0----30.02- 68.4-----
2024-06-13 05:00 am SW 12.0 13.0----30.03+0.00 68.4-----
2024-06-13 04:54 am SW 11.1 12.0----30.02- 68.2-----
2024-06-13 04:48 am SW 11.1 12.0----30.02- 68.4-----
2024-06-13 04:42 am SW 11.1 12.0----30.02- 68.4-----
2024-06-13 04:36 am SW 12.0 13.0----30.01- 68.5-----
2024-06-13 04:30 am SW 11.1 13.0----30.02- 68.5-----
2024-06-13 04:24 am SW 12.0 13.0----30.02- 68.7-----
2024-06-13 04:18 am SW 11.1 12.0----30.02- 68.7-----
2024-06-13 04:12 am SW 11.1 12.0----30.01- 68.7-----
2024-06-13 04:06 am SW 11.1 13.0----30.01- 68.9-----
2024-06-13 04:00 am SW 12.0 13.0----30.01-0.02 69.1-----
2024-06-13 03:54 am SW 11.1 12.0----30.01- 69.1-----
2024-06-13 03:48 am SW 12.0 12.0----30.01- 69.1-----
2024-06-13 03:42 am SW 8.9 12.0----30.01- 68.9-----
2024-06-13 03:36 am SW 11.1 12.0----30.01- 69.1-----
2024-06-13 03:30 am SW 11.1 12.0----30.01- 69.1-----
2024-06-13 03:24 am SW 11.1 12.0----30.01- 68.9-----
2024-06-13 03:18 am SW 9.9 11.1----30.01- 68.9-----
2024-06-13 03:12 am SW 8.0 8.9----30.01- 68.7-----
2024-06-13 03:06 am SW 8.0 8.9----30.02- 68.7-----
2024-06-13 03:00 am SW 8.0 8.9----30.02-0.01 68.5-----
2024-06-13 02:54 amSSW 8.0 11.1----30.02- 68.5-----
2024-06-13 02:48 am SW 9.9 12.0----30.02-------
2024-06-13 02:42 am SW 8.9 11.1----30.02-------
2024-06-13 02:36 am SW 8.9 11.1----30.02-------
2024-06-13 02:30 am SW 9.9 12.0----30.02- 68.9-----
2024-06-13 02:24 am SW 11.1 11.1----30.02- 68.9-----
2024-06-13 02:18 am SW 11.1 11.1----30.02- 68.9-----
2024-06-13 02:12 am SW 11.1 12.0----30.02- 69.1-----
2024-06-13 02:06 am SW 12.0 12.0----30.03- 69.1-----
2024-06-13 02:00 am SW 9.9 11.1----30.03-0.01------
2024-06-13 01:54 am SW 9.9 11.1----30.03-------
2024-06-13 01:48 am-------30.03- 69.3-----
2024-06-13 01:42 am-------30.03- 69.3-----
2024-06-13 01:36 am-------30.03- 69.3-----
2024-06-13 01:30 am SW 9.9 11.1----30.03- 69.3-----
2024-06-13 01:24 am SW 9.9 11.1----30.03- 69.3-----
2024-06-13 01:18 am SW 9.9 11.1----30.03- 69.3-----
2024-06-13 01:12 am SW 9.9 12.0----30.03- 69.3-----
2024-06-13 01:06 am SW 11.1 12.0----30.03- 69.4-----
2024-06-13 01:00 am-------30.03- 69.3-----
2024-06-13 12:54 am-------30.03- 70.0-----
2024-06-13 12:48 amWSW 8.9 9.9----30.03- 70.7-----
2024-06-13 12:42 amWSW 8.9 9.9----30.03- 70.5-----
2024-06-13 12:36 amWSW 8.9 11.1----30.03- 70.9-----
2024-06-13 12:30 amWSW 8.9 9.9----30.03- 70.9-----
2024-06-13 12:24 amWSW 8.9 9.9----30.03- 70.9-----
2024-06-13 12:18 amWSW 8.9 8.9----30.03- 70.9-----
2024-06-13 12:12 amWSW 8.0 8.9----30.03- 70.9-----
2024-06-13 12:06 amWSW 8.9 11.1----30.03- 70.9-----
2024-06-13 12:00 amWSW 9.9 11.1----30.03- 70.7-----
2024-06-12 11:54 pmWSW 9.9 9.9----30.03- 70.5-----
2024-06-12 11:48 pmWSW 9.9 9.9----30.03-------
2024-06-12 11:42 pmWSW 8.9 9.9----30.03-------
2024-06-12 11:36 pm SW 8.9 9.9----30.03-------
2024-06-12 11:30 pm SW 9.9 12.0------------
2024-06-12 11:24 pm SW 8.9 12.0------------
2024-06-12 11:18 pm SW 9.9 11.1----30.04-------
2024-06-12 11:12 pm SW 11.1 12.0----30.04-------
2024-06-12 11:06 pm SW 9.9 11.1----30.04-------
2024-06-12 11:00 pm SW 9.9 11.1----30.04+0.02 70.3-----
2024-06-12 10:54 pm SW 11.1 11.1----30.04- 70.5-----
2024-06-12 10:48 pm SW 9.9 11.1----30.04- 70.5-----
2024-06-12 10:42 pm SW 9.9 11.1----30.04- 70.5-----
2024-06-12 10:36 pm SW 11.1 12.0----30.04- 70.5-----
2024-06-12 10:30 pm SW 11.1 12.0----30.04- 70.5-----
2024-06-12 10:24 pmSSW 8.9 8.9----30.04- 70.2-----
2024-06-12 10:18 pmSSW 7.0 8.0----30.04- 69.6-----
2024-06-12 10:12 pm S 8.0 9.9----30.04- 69.4-----
2024-06-12 10:06 pm S 8.0 8.9----30.04- 69.3-----
2024-06-12 10:00 pm S 8.9 9.9------------
2024-06-12 09:54 pm S 9.9 11.1------------
2024-06-12 09:48 pm S 11.1 12.0----30.03-------
2024-06-12 09:42 pm S 11.1 12.0----30.03-------
2024-06-12 09:36 pm S 11.1 12.0----30.03-------
2024-06-12 09:30 pm S 11.1 12.0----30.03- 69.1-----
2024-06-12 09:24 pm S 12.0 13.0----30.03- 69.1-----
2024-06-12 09:18 pm S 12.0 14.0----30.02-------
2024-06-12 09:12 pm S 12.0 13.0----30.02-------
2024-06-12 09:06 pm S 13.0 14.0----30.02-------
2024-06-12 09:00 pm S 14.0 15.9------------
2024-06-12 08:54 pm S 14.0 15.0------------
2024-06-12 08:48 pm S 14.0 15.9----30.02-------
2024-06-12 08:42 pm S 14.0 15.9----30.02-------
2024-06-12 08:36 pm S 14.0 15.9----30.02-------
2024-06-12 08:30 pm S 14.0 15.9----30.02-------
2024-06-12 08:24 pm S 15.0 17.1----30.01-------
2024-06-12 08:18 pm S 15.0 17.1----30.02- 69.6-----
2024-06-12 08:12 pm S 15.9 17.1----30.02- 69.4-----
2024-06-12 08:06 pm S 15.0 17.1----30.02- 69.4-----
2024-06-12 08:00 pm S 15.9 18.1----30.02+0.00------
2024-06-12 07:54 pm S 15.0 17.1----30.02-------